Location: Moscow
(55.7500°N, 37.5830°E)
Time: 10:46:37
(UTC+03:00)

Vanguard 3 - Pass Details

Date: 05 December 2021
Orbit: 508 x 3260 km, 33.3° (Epoch: 19 January)

Event Time Altitude Azimuth Distance (km) Brightness Sun altitude
Rises 03:57:12 0° 221° (SW) 7,031 - -38.2°
Reaches altitude 10° 04:02:49 10° 212° (SSW) 6,154 - -37.5°
Exits shadow 04:07:51 19° 200° (SSW) 5,464 11.0 -36.8°
Maximum altitude 04:17:48 29° 163° (SSE) 4,635 10.9 -35.4°
Drops below altitude 10° 04:30:44 10° 113° (ESE) 5,315 11.9 -33.6°
Sets 04:35:05 0° 103° (ESE) 5,968 12.5 -33.0°
